STARLINK-35019

Last updated on Mon Oct 06 2025 00:02:06 GMT+0000 (Coordinated Universal Time)

1 65513U 25198X 25278.50001156 -.00003626 00000+0 -57193-4 0 9994 2 65513 53.1589 280.4292 0001209 82.2463 104.4257 15.49298517 5545

Satellite not in orbit

STARLINK-35019